| time (UTC) | temp C | wind direction | speed KPH | gust KPH | rain 1hr cm | rain 24hr cm | rain mn cm | humidity % | barometer mb |
| 20260504160122 | 18 | 225 | 0.0 | 0.0 | 0.00 | 0.00 | 0.00 | 58 | 1010.0 |
| 20260504151122 | 16 | 180 | 0.0 | 0.0 | 0.00 | 0.00 | 0.00 | 67 | 1009.9 |
| 20260504150122 | 16 | 185 | 0.0 | 4.8 | 0.00 | 0.00 | 0.00 | 67 | 1009.9 |
| 20260504141145 | 16 | 247 | 0.0 | 4.8 | 0.00 | 0.00 | 0.00 | 67 | 1009.5 |
| 20260504140124 | 16 | 27 | 1.6 | 11.3 | 0.00 | 0.00 | 0.00 | 66 | 1009.4 |
| 20260504130123 | 16 | 90 | 0.0 | 4.8 | 0.00 | 0.00 | 0.00 | 68 | 1009.0 |
| 20260504120123 | 16 | 90 | 0.0 | 0.0 | 0.00 | 0.00 | 0.00 | 64 | 1009.0 |
| 20260504110123 | 16 | 90 | 0.0 | 4.8 | 0.00 | 0.00 | 0.00 | 62 | 1009.1 |
| 20260504100121 | 15 | 90 | 0.0 | 0.0 | 0.00 | 0.00 | 0.00 | 69 | 1009.0 |
| 20260504090124 | 16 | 113 | 0.0 | 0.0 | 0.00 | 0.00 | 0.00 | 65 | 1008.8 |
| 20260504081144 | 16 | 113 | 0.0 | 4.8 | 0.00 | 0.00 | 0.00 | 66 | 1008.7 |
| 20260504080123 | 16 | 113 | 0.0 | 4.8 | 0.00 | 0.00 | 0.00 | 67 | 1008.5 |
| 20260504070144 | 16 | 113 | 0.0 | 0.0 | 0.00 | 0.00 | 0.00 | 66 | 1008.4 |
| 20260504060144 | 18 | 113 | 0.0 | 0.0 | 0.00 | 0.00 | 0.00 | 66 | 1008.5 |
| 20260504050123 | 19 | 113 | 0.0 | 0.0 | 0.00 | 0.00 | 0.00 | 58 | 1008.7 |
| 20260504045122 | 20 | 113 | 0.0 | 3.2 | 0.00 | 0.00 | 0.00 | 57 | 1008.7 |
| 20260504044121 | 20 | 113 | 0.0 | 3.2 | 0.00 | 0.00 | 0.00 | 56 | 1008.6 |
| 20260504043143 | 20 | 45 | 0.0 | 3.2 | 0.00 | 0.00 | 0.00 | 56 | 1008.6 |
| 20260504042123 | 20 | 82 | 0.0 | 6.4 | 0.00 | 0.00 | 0.00 | 56 | 1008.6 |
| 20260504041123 | 21 | 105 | 0.0 | 3.2 | 0.00 | 0.00 | 0.00 | 54 | 1008.7 |
| 20260504040121 | 21 | 90 | 0.0 | 3.2 | 0.00 | 0.00 | 0.00 | 52 | 1008.7 |
| 20260504035123 | 22 | 90 | 0.0 | 4.8 | 0.00 | 0.00 | 0.00 | 51 | 1008.7 |
| 20260504034144 | 23 | 113 | 0.0 | 4.8 | 0.00 | 0.00 | 0.00 | 48 | 1008.6 |
| 20260504033123 | 25 | 135 | 0.0 | 0.0 | 0.00 | 0.00 | 0.00 | 46 | 1008.6 |
| 20260504032122 | 25 | 113 | 0.0 | 3.2 | 0.00 | 0.00 | 0.00 | 48 | 1008.6 |
| 20260504031123 | 23 | 113 | 0.0 | 4.8 | 0.00 | 0.00 | 0.00 | 51 | 1008.7 |
| 20260504030121 | 25 | 113 | 0.0 | 3.2 | 0.00 | 0.00 | 0.00 | 48 | 1008.7 |
| 20260504024124 | 27 | 180 | 0.0 | 0.0 | 0.00 | 0.00 | 0.00 | 40 | 1008.7 |
| 20260504023123 | 27 | 180 | 0.0 | 0.0 | 0.00 | 0.00 | 0.00 | 40 | 1008.8 |
| 20260504022122 | 27 | 270 | 0.0 | 0.0 | 0.00 | 0.00 | 0.00 | 40 | 1008.9 |
| 20260504021123 | 27 | 270 | 0.0 | 0.0 | 0.00 | 0.00 | 0.00 | 40 | 1008.9 |
| 20260504020145 | 28 | 270 | 0.0 | 0.0 | 0.00 | 0.00 | 0.00 | 32 | 1009.0 |
| 20260504015124 | 28 | 270 | 0.0 | 0.0 | 0.00 | 0.00 | 0.00 | 32 | 1009.0 |
| 20260504014122 | 28 | 23 | 0.0 | 0.0 | 0.00 | 0.00 | 0.00 | 32 | 1009.2 |
| 20260504013144 | 28 | 23 | 0.0 | 0.0 | 0.00 | 0.00 | 0.00 | 32 | 1009.2 |
| 20260504012145 | 28 | 270 | 0.0 | 0.0 | 0.00 | 0.00 | 0.00 | 32 | 1009.5 |
| 20260504011123 | 28 | 270 | 1.6 | 3.2 | 0.00 | 0.00 | 0.00 | 32 | 1009.5 |
| 20260504010122 | 27 | 270 | 1.6 | 3.2 | 0.00 | 0.00 | 0.00 | 38 | 1009.7 |
| 20260504005124 | 27 | 42 | 4.8 | 9.7 | 0.00 | 0.00 | 0.00 | 38 | 1009.7 |
| 20260504004143 | 27 | 45 | 6.4 | 9.7 | 0.00 | 0.00 | 0.00 | 38 | 1010.0 |
| 20260504003143 | 27 | 252 | 4.8 | 9.7 | 0.00 | 0.00 | 0.00 | 38 | 1010.2 |
| 20260504002122 | 27 | 247 | 4.8 | 6.4 | 0.00 | 0.00 | 0.00 | 38 | 1010.2 |
| 20260504001124 | 27 | 247 | 4.8 | 6.4 | 0.00 | 0.00 | 0.00 | 38 | 1010.2 |
| 20260504000122 | 26 | 247 | 4.8 | 6.4 | 0.00 | 0.00 | 0.00 | 41 | 1010.5 |
| 20260503235124 | 26 | 266 | 4.8 | 6.4 | 0.00 | 0.00 | 0.00 | 41 | 1010.5 |
| 20260503234124 | 26 | 270 | 4.8 | 6.4 | 0.00 | 0.00 | 0.00 | 41 | 1010.8 |
| 20260503233123 | 26 | 270 | 4.8 | 8.0 | 0.00 | 0.00 | 0.00 | 41 | 1010.9 |
| 20260503232122 | 26 | 270 | 4.8 | 8.0 | 0.00 | 0.00 | 0.00 | 41 | 1010.9 |
| 20260503231122 | 26 | 270 | 8.0 | 12.9 | 0.00 | 0.00 | 0.00 | 41 | 1010.9 |
| 20260503230144 | 25 | 270 | 8.0 | 12.9 | 0.00 | 0.00 | 0.00 | 50 | 1011.2 |
| 20260503225124 | 25 | 259 | 3.2 | 12.9 | 0.00 | 0.00 | 0.00 | 50 | 1011.2 |
| 20260503224123 | 25 | 247 | 1.6 | 3.2 | 0.00 | 0.00 | 0.00 | 50 | 1011.7 |
| 20260503223145 | 25 | 225 | 9.7 | 16.1 | 0.00 | 0.00 | 0.00 | 50 | 1011.8 |
| 20260503222124 | 25 | 225 | 9.7 | 16.1 | 0.00 | 0.00 | 0.00 | 50 | 1011.8 |
| 20260503221124 | 25 | 314 | 4.8 | 16.1 | 0.00 | 0.00 | 0.00 | 50 | 1011.8 |
| 20260503220143 | 25 | 360 | 3.2 | 4.8 | 0.00 | 0.00 | 0.00 | 50 | 1012.1 |
| 20260503215122 | 25 | 360 | 3.2 | 4.8 | 0.00 | 0.00 | 0.00 | 50 | 1012.1 |
| 20260503214122 | 23 | 360 | 3.2 | 4.8 | 0.00 | 0.00 | 0.00 | 62 | 1012.2 |
| 20260503213123 | 23 | 360 | 0.0 | 4.8 | 0.00 | 0.00 | 0.00 | 62 | 1012.2 |
| 20260503212124 | 21 | 360 | 0.0 | 0.0 | 0.00 | 0.00 | 0.00 | 63 | 1012.5 |
| 20260503211122 | 21 | 113 | 3.2 | 6.4 | 0.00 | 0.00 | 0.00 | 63 | 1012.5 |
| 20260503210123 | 21 | 113 | 4.8 | 6.4 | 0.00 | 0.00 | 0.00 | 63 | 1013.0 |
| 20260503205122 | 21 | 113 | 3.2 | 6.4 | 0.00 | 0.00 | 0.00 | 63 | 1013.0 |
| 20260503204123 | 21 | 113 | 3.2 | 4.8 | 0.00 | 0.00 | 0.00 | 65 | 1013.1 |
| 20260503203124 | 21 | 113 | 0.0 | 4.8 | 0.00 | 0.00 | 0.00 | 65 | 1013.2 |
| 20260503202122 | 19 | 113 | 0.0 | 0.0 | 0.00 | 0.00 | 0.00 | 72 | 1013.2 |
| 20260503201123 | 19 | 113 | 0.0 | 0.0 | 0.00 | 0.00 | 0.00 | 72 | 1013.2 |
| 20260503200123 | 19 | 293 | 0.0 | 0.0 | 0.00 | 0.00 | 0.00 | 72 | 1013.6 |
| 20260503195124 | 19 | 293 | 0.0 | 0.0 | 0.00 | 0.00 | 0.00 | 72 | 1013.6 |
| 20260503194122 | 19 | 293 | 0.0 | 0.0 | 0.00 | 0.00 | 0.00 | 74 | 1013.7 |
| 20260503193124 | 19 | 292 | 1.6 | 3.2 | 0.00 | 0.00 | 0.00 | 74 | 1013.9 |
| 20260503192143 | 18 | 292 | 1.6 | 3.2 | 0.00 | 0.00 | 0.00 | 76 | 1013.9 |
| 20260503191122 | 18 | 292 | 0.0 | 3.2 | 0.00 | 0.00 | 0.00 | 76 | 1013.9 |
| 20260503190124 | 18 | 270 | 0.0 | 0.0 | 0.00 | 0.00 | 0.00 | 76 | 1014.1 |
| 20260503185122 | 18 | 270 | 0.0 | 0.0 | 0.00 | 0.00 | 0.00 | 76 | 1014.1 |
| 20260503184122 | 17 | 270 | 0.0 | 0.0 | 0.00 | 0.00 | 0.00 | 77 | 1014.2 |
| 20260503183122 | 17 | 270 | 0.0 | 0.0 | 0.00 | 0.00 | 0.00 | 77 | 1014.2 |
| 20260503182123 | 17 | 270 | 0.0 | 0.0 | 0.00 | 0.00 | 0.00 | 81 | 1014.2 |
| 20260503181144 | 17 | 270 | 0.0 | 0.0 | 0.00 | 0.00 | 0.00 | 81 | 1014.2 |
| 20260503180123 | 17 | 270 | 0.0 | 0.0 | 0.00 | 0.00 | 0.00 | 81 | 1014.2 |
| 20260503175122 | 17 | 270 | 0.0 | 0.0 | 0.00 | 0.00 | 0.00 | 81 | 1014.2 |
| 20260503174124 | 16 | 270 | 0.0 | 0.0 | 0.00 | 0.00 | 0.00 | 82 | 1014.4 |
| 20260503173123 | 16 | 270 | 0.0 | 0.0 | 0.00 | 0.00 | 0.00 | 82 | 1014.4 |
| 20260503172124 | 16 | 270 | 0.0 | 0.0 | 0.00 | 0.00 | 0.00 | 82 | 1014.5 |
| 20260503171122 | 16 | 270 | 0.0 | 0.0 | 0.00 | 0.00 | 0.00 | 82 | 1014.5 |
| 20260503170122 | 16 | 158 | 0.0 | 0.0 | 0.00 | 0.00 | 0.00 | 82 | 1014.5 |